Follow iAlert.com on twitter @ialertcom
Search For Active Alerts in Your Area  
  Hi Guest:  [ Sign-up / Services ] [ Login ]

Current weather by "City, St" or "zip code"  
 

Advertise Here

Current Conditions: Allentown, Lehigh Valley International Airport, PA

Overcast


40.0 F

Last Updated on Dec 17 2018, 4:51 am EST
Humidity: 77%
Wind Speed: W 8.1 mph
Barometer 29.80 in
Dewpoint: 33.1 F
Visibility: 10.00 mi
Precip: --
Heat Index: NA
Wind Chill: 35 F
Current conditions at:

Allentown, Lehigh Valley International Airport, PA (KABE)

Lat: 40.64 Lon: 75.447

Local Radar Image active severe weather and emergency alerts image image weather storm and storm spotter reports image weather observation monitoring service image
Local
Radar
Active
Alerts
Storm Reports Obs
Monitoring

iAlert Weather and Emergency Alert Notification Services:


ialert severe weather and emergency alerts by text message and email ialert daily weather forecast by email and text message service ialert real-time weather-observation monitoring and alert notification service ialert storm report monitoring alert notification

Observation History for Allentown, Lehigh Valley International Airport, PA


Time Wind
(mph)
Vis
(mi)
Weather Precip (in) Temperature (F) Relative
Humidity
Wind
Chill
(°F)
Heat
Index
(°F)
Pressure
Air Dwpt altimeter
(in)
sea level
(mb)
4:51 am EST W 8.1 10.00 Overcast -- 40.0 33.1 77% 35 NA 29.80 1009.2
3:51 am EST SW 8.1 10.00 Overcast -- 40.0 33.1 77% 35 NA 29.80 1009.4
2:51 am EST NW 6.9 10.00 Overcast -- 40.0 33.1 77% 35 NA 29.82 1009.9
1:51 am EST W 3.5 10.00 Partly Cloudy -- 38.0 32.0 79% NA NA 29.81 1009.6
12:51 am EST NW 9.2 10.00 Overcast -- 39.0 33.1 79% 33 NA 29.82 1009.9
11:51 pm EST NW 6.9 10.00 Overcast -- 40.0 34.0 79% 35 NA 29.83 1010.3
10:51 pm EST NW 5.8 10.00 Overcast -- 39.0 34.0 82% 35 NA 29.85 1010.9
9:51 pm EST N 0.0 10.00 Overcast -- 38.0 34.0 86% NA NA 29.85 1011.3
8:51 pm EST W 4.6 10.00 Overcast -- 38.0 34.0 86% 34 NA 29.86 1011.5
7:51 pm EST N 3.5 10.00 Overcast -- 37.0 34.0 89% NA NA 29.85 1011.3
6:51 pm EST N 6.9 10.00 Light Rain 00.09 37.0 33.1 86% 32 NA 29.87 1011.8
5:51 pm EST N 6.9 10.00 Light Rain -- 37.0 33.1 86% 32 NA 29.87 1011.8
4:51 pm EST N 6.9 8.00 Rain -- 38.0 34.0 86% 33 NA 29.87 1011.7
3:51 pm EST N 9.2 6.00 Light Rain Fog/Mist -- 39.0 35.1 86% 33 NA 29.86 1011.3
2:51 pm EST NE 11.5 7.00 Light Rain 00.02 39.0 35.1 86% 32 NA 29.85 1011.0
1:51 pm EST NE 11.5 7.00 Light Rain Trace 40.0 34.0 79% 33 NA 29.85 1010.9
12:51 pm EST NE 16.1 10.00 Overcast -- 40.0 34.0 79% 32 NA 29.86 1011.3
11:51 am EST NE 16.1 10.00 Overcast -- 39.0 34.0 82% 30 NA 29.89 1012.5
10:51 am EST NE 16.1 10.00 Overcast -- 39.0 34.0 82% 30 NA 29.94 1014.1
9:51 am EST NE 16.1 5.00 Fog/Mist Trace 38.0 34.0 86% 29 NA 29.97 1015.1
8:51 am EST NE 12.7 8.00 Overcast Trace 38.0 34.0 86% 30 NA 29.99 1015.7
7:51 am EST NE 12.7 8.00 Light Rain 00.01 38.0 34.0 86% 30 NA 29.99 1015.7
6:51 am EST NE 13.8 6.00 Light Rain Fog/Mist 00.04 38.0 34.0 86% 30 NA 29.99 1015.7
5:51 am EST NE 12.7 4.00 Rain Fog/Mist 00.06 38.0 34.0 86% 30 NA 30.01 1016.4

Regional Weather Observation


Allentown Queen City Municipal Airport, PA (KXLL)

Overcast
39.0 F

Quakertown Airport, PA (KUKT)

Overcast
37.0 F

Reading, Reading Regional Airport, PA (KRDG)

Overcast
40.0 F

Mount Pocono, Pocono Mountains Municipal Airport, PA (KMPO)

Overcast
32.0 F

Pottstown, Pottstown Limerick Airport, PA (KPTW)

Overcast
38.0 F

Doylestown, Doylestown Airport, PA (KDYL)

Overcast
38.0 F

Advertise Here